IRIDIUM 131 (43079 NORAD) Tracking and Keplerian Element Data

This shows tracking and keplerian element data for the satellite.

Feedback or suggestion? Click here.




ElementValue
Catalog43079
NameIRIDIUM 131
Epoch Orbit31707
Epoch Day12.92012824
Epoch Year2024
RAAN332.5296
Inclination86.399
Eccentricity0.0002226
Argument of Perigee86.6891
Mean Anonmoly273.4559
Mean Motion14.34220289
Decay Rate5.13E-06
L11 43079U 17083K 24012.92012824 .00000513 00000+0 17609-3 0 9993
L22 43079 86.3990 332.5296 0002226 86.6891 273.4559 14.34220289317078



Live tracking and technical data element details for IRIDIUM 131 (NORAD 43079). IRIDIUM 131 can be tracked NOW for your location showing map with azimuth and elevation plus other details from your city location.







IsCatalogInMostPopularTable: catalog: 43079, numindb: 718
Update: records affected: 1



GetName: 43079 IRIDIUM 131

Hit Count: updated at: Fri, 19 Apr 2024 12:16:23 GMT